Find Starlink 34152

NORAD ID: 64000 Int'l Des: 2025-101 Owner: SPXS Country: US Constellation: starlink operational
LEOCIRCULAR

Aktuelle Ansicht

3D-Globus wird geladen...

Über Starlink 34152

Beschreibung wird geladen...

Nächste Überflüge

Passes for default location (London). Set your location on the main map for personalized predictions.

Höhenverlauf

Loading altitude history...

Zweizeiliger Elementsatz

1 64000U 25101G 26146.35173562 .00017535 00000-0 64493-3 0 9990
2 64000 42.9998 279.2822 0000682 205.8474 154.2343 15.27595103 58936
Epoch: 26. Mai 2026 • Age: 14 hours

Aktueller Status

Höhe 496.0 km
Geschwindigkeit 7.62 km/s
Subsatellitenpunkt -42.92°S, 23.94°W
Startdatum 14. Mai 2025
Alter 1 years
Typ internet

Technische Details

Klassifizierung Payload
Masse 575.00 kg
Trockenmasse 530.00 kg
Gesamtmasse 575.00 kg
Länge 0.30 m
Durchmesser 4.10 m
Spannweite 29.00 m
Form Box + pan
Hersteller SPXS
Bus-Typ Starlink V2MO
Phasenstatus In Orbit
Besitzer/Staat SPXS/US

Most Searched